Regional Weather Roundup
Issued by NWS

Home | Current Version | Previous Version | Graphics & Text | Print | Product List | Glossary On
Versions: 1 2 3 4 5 6 7 8 9 10 11 12 13 14 15 16 17 18 19 20 21 22 23 24 25 26 27 28 29 30 31 32 33 34 35 36 37 38 39 40 41 42 43 44 45 46 47 48 49 50
000
ASUS43 KMPX 260801
RWRMN
WEATHER ROUNDUP FOR MINNESOTA
NATIONAL WEATHER SERVICE TWIN CITIES/CHANHASSEN MN
300 AM CDT TUE MAY 26 2015


NOTE: "FAIR" INDICATES FEW OR NO CLOUDS BELOW 12,000 FEET WITH NO
SIGNIFICANT WEATHER AND/OR OBSTRUCTIONS TO VISIBILITY. N/A MEANS
CURRENT SKY AND/OR WEATHER CONDITIONS ARE NOT AVAILABLE.

MNZ060>063-068>070-260900-
   Twin Cities Metro

CITY           SKY/WX    TMP DP  RH WIND       PRES   REMARKS
TWIN CITIES    MOCLDY    60  57  89 CALM      29.79S
ST PAUL        CLOUDY    58  57  97 CALM      29.79S
CRYSTAL        MOCLDY    58  55  90 CALM      29.77F
BLAINE         MOCLDY    57  57 100 CALM      29.78F
LAKEVILLE      CLOUDY    57  55  94 CALM      29.79F
EDEN PRAIRIE   MOCLDY    58  56  93 W3        29.78S
SOUTH ST PAUL  MOCLDY    59  56  90 CALM      29.78F
LAKE ELMO      FAIR      57  55  94 CALM      29.80S
$$
MNZ001>005-007-008-013>017-022>024-027-028-260900-
   Northwest Minnesota

CITY           SKY/WX    TMP DP  RH WIND       PRES   REMARKS
BEMIDJI        FOG       46  46 100 CALM      29.85S VSB<1/4
HALLOCK        CLEAR     57  50  77 S13       29.80S
ROSEAU         CLEAR     54  48  82 S8        29.83S
WARROAD        CLEAR     55  52  88 S7        29.83F
THIEF RVR FALL CLEAR     52  48  87 SW7       29.86F
CROOKSTON      CLEAR     54  48  82 S6        29.85F
FOSSTON        CLEAR     45  43  93 CALM      29.87S
DETROIT LAKES  CLEAR     50  48  93 NW6       29.88S
MOORHEAD       CLEAR     52  50  93 CALM      29.87F
PARK RAPIDS    CLEAR     48  46  93 W5        29.85R FOG
MAHNOMEN       FAIR      48  47  97 W3        29.87S
$$
MNZ006-009>011-018-025>026-260900-
   North Central Minnesota

CITY           SKY/WX    TMP DP  RH WIND       PRES   REMARKS
BAUDETTE       PTCLDY    50  48  93 SW6       29.84S
FLAG ISLAND    CLEAR     55  52  88 S9        29.81S
INTL FALLS     CLOUDY    49  47  93 CALM      29.85S
WASKISH        PTCLDY    48  48 100 CALM      29.85F
BIG FORK       CLOUDY    52  50  93 CALM      29.84F FOG
LONGVILLE      PTCLDY    52  50  93 CALM      29.83S
GRAND RAPIDS   MOCLDY    50  46  87 N5        29.84R
CRANE LAKE     CLOUDY    50  48  93 CALM      29.86S FOG
COOK           LGT RAIN  52  52 100 CALM      29.84S
WALKER         FAIR      50  49  97 CALM      29.84S
$$
MNZ012-019>021-037-260900-
   Northeast Minnesota

CITY           SKY/WX    TMP DP  RH WIND       PRES   REMARKS
DULUTH         DRIZZLE   53  51  93 NE6       29.81R FOG
ELY            LGT RAIN  54  50  87 CALM      29.83R
HIBBING        CLOUDY    54  50  86 N7        29.82S
EVELETH        MOCLDY    52  52 100 N3        29.83R
DULUTH HARBOR  DRIZZLE   46  46 100 SE3       29.82R
TWO HARBORS    CLOUDY    55  52  88 NE6       29.80R
GRAND MARAIS     N/A     46  46 100 CALM      29.80R
G MARAIS ARPRT CLOUDY    52  46  82 N6        29.82R
$$
MNZ029>031-032-039>041-046>048-054>057-064-260900-
   West Central Minnesota

CITY           SKY/WX    TMP DP  RH WIND       PRES   REMARKS
FERGUS FALLS   CLEAR     52  52 100 N6        29.86F
WHEATON        PTCLDY    52  48  87 NW8       29.86S
MORRIS         MOCLDY    54  52  94 N12       29.81R
ALEXANDRIA     CLOUDY    54  51  90 N7        29.82S
ELBOW LAKE     FAIR      54  51  90 N14       29.82F
WADENA         CLEAR     48  48 100 NW8       29.84S
GLENWOOD       CLOUDY    54  52  94 VRB7      29.82R
APPLETON       CLOUDY    55  52  88 N7        29.81S
BENSON         CLOUDY    55  52  88 N6        29.81S
ORTONVILLE     PTCLDY    54  48  82 N9        29.82F
MADISON        PTCLDY    54  52  94 NW9       29.82S
WILLMAR        CLOUDY    57  55  94 N6        29.80F
$$
MNZ033>034-036-042>043-049>051-058-059-260900-
   Central Minnesota

CITY           SKY/WX    TMP DP  RH WIND       PRES   REMARKS
ST CLOUD       CLOUDY    56  54  93 N7        29.79S
SAUK CENTRE    CLOUDY    55  52  90 N8        29.82R
PAYNESVILLE    CLOUDY    53  53  99 NW5       29.80S
AITKIN         CLOUDY    55  48  76 NE6       29.79S
PINE RIVER     MOCLDY    52  52 100 N6        29.87S
BRAINERD       CLOUDY    54  52  93 NE5       29.82R
STAPLES        PTCLDY    52  50  93 N7        29.82S
LONG PRAIRIE   CLOUDY    54  50  87 N8        29.82R
LITTLE FALLS   CLOUDY    54  52  94 CALM      29.81R
LITCHFIELD     CLOUDY    57  57 100 VRB3      29.79F
BUFFALO        MOCLDY    56  54  92 CALM      29.80S
MAPLE LAKE     MOCLDY    57  56  97 NW6       29.78F
$$
MNZ037-044-045-052-053-260900-
   East Central Minnesota

CITY           SKY/WX    TMP DP  RH WIND       PRES   REMARKS
PRINCETON      CLOUDY    57  55  94 N3        29.79S
MORA           CLOUDY    50  48  93 CALM      29.82S
CAMBRIDGE      CLOUDY    59  52  77 CALM      29.78R HAZE
RUSH CITY      CLOUDY    53  51  95 N5        29.81R FOG
MOOSE LAKE     CLOUDY    50  50 100 NE3       29.79S
HINCKLEY       CLOUDY    50  50 100 CALM      29.81R
CLOQUET        CLOUDY    54  52  94 NE5       29.80S FOG
MCGREGOR       CLOUDY    54  52  94 N5        29.81S
$$
MNZ071>073-080-081-089-090-097-098-260900-
   Southwest Minnesota

CITY           SKY/WX    TMP DP  RH WIND       PRES   REMARKS
MONTEVIDEO     CLOUDY    55  54  94 N12       29.81S
GRANITE FALLS  CLOUDY    56  53  89 NW7       29.81S
CANBY          MOCLDY    52  50  92 NW7       29.83R
MARSHALL       CLOUDY    55  50  82 N5        29.81R
REDWOOD FALLS  PTCLDY    54  53  97 CALM      29.79S
OLIVIA         CLOUDY    52  50  93 CALM      29.79S
PIPESTONE      CLOUDY    55  52  88 NE6       29.81R
WINDOM         CLOUDY    55  54  94 N7        29.80F
WORTHINGTON    CLOUDY    55  52  88 N5        29.81R
JACKSON        CLOUDY    57  55  94 CALM      29.80S
TRACY          MOCLDY    55  54  95 NW5       29.82R
SLAYTON        CLOUDY    55  54  97 N8        29.82S
$$
MNZ065>067-074>077-082>085-091>093-260900-
   South Central Minnesota

CITY           SKY/WX    TMP DP  RH WIND       PRES   REMARKS
MANKATO        MOCLDY    57  54  88 N6        29.78F
NEW ULM        PTCLDY    55  55 100 CALM      29.79F
ST JAMES       CLOUDY    57  57 100 NW3       29.80F
FAIRMONT       CLOUDY    61  54  77 MISG      29.79S
GLENCOE        MOCLDY    56  55  98 CALM      29.79S
FARIBAULT      FOG       57  55  94 CALM      29.80S VSB 1/2
OWATONNA       PTCLDY    57  55  94 NW3       29.80S FOG
WASECA         PTCLDY    55  55 100 N7        29.80F FOG
ALBERT LEA     MOCLDY    63  55  77 CALM      29.78F
$$
MNZ078>079-086>088-094>096-260900-
   Southeast Minnesota

CITY           SKY/WX    TMP DP  RH WIND       PRES   REMARKS
ROCHESTER      CLOUDY    60  57  89 S6        29.81F
RED WING       MOCLDY    57  57 100 CALM      29.79F FOG
STANTON        CLOUDY    57  55  94 CALM      29.79S FOG
DODGE CENTER   MOCLDY    63  57  82 SW7       29.80F
WINONA         CLOUDY    63  57  82 NW5       29.79F
AUSTIN         MOCLDY    61  55  82 CALM      29.79F
PRESTON        CLOUDY    58  56  92 W12       29.84R
$$
ABBREVIATIONS USED IN REMARKS
   TC - TEMPERATURES IN CELSIUS
  WCI - WIND CHILL INDEX
   HX - HEAT INDEX
  VSB - VISIBILITY
$$



USA.gov is the U.S. government's official web portal to all federal, state and local government web resources and services.